[[{"header":{"parameterUnit":"m.s-1","parameterCategory":1,"la1":30.2991,"la2":30.254,"lo1":-89.0895,"lo2":-89.0444,"dy":0.0017,"dx":0.0017,"nx":28,"ny":28,"refTime":"2023-09-08T21:00:00:Z","depth":0,"parameterNumber":2,"parameterNumberName":"U-component_of_WINDS"},"data":[0,0,0,0,0,0,0,0,0,0,0,0,0,0,0,0,0,0,0,0,0,0,0,0,0,0,0,0,0,0,0,0,0,0,0,0,0,0,0,0,0,0,0,0,0,0,0,0,0,0,0,0,0,0,0,0,0,0,-1.5261,-1.5261,0,-1.5284,-1.5284,-1.5285,-1.5187,-1.5184,-1.5181,-1.5178,-1.5205,-1.5208,-1.5212,0,0,0,0,0,0,0,0,0,0,0,0,0,-1.5132,-1.5135,-1.5261,-1.5261,-1.5261,-1.5284,-1.5284,-1.5285,-1.5187,-1.5183,-1.518,-1.5177,-1.5204,-1.5208,-1.5212,0,0,0,0,0,0,0,0,0,0,0,0,0,-1.5175,-1.5136,-1.5261,-1.5215,-1.5211,-1.5284,-1.5284,-1.5285,-1.5188,-1.5183,-1.5179,-1.5175,-1.5202,-1.5207,-1.5212,-1.5331,0,0,-1.5228,-1.523,0,0,0,0,0,0,0,0,-1.5173,-1.518,-1.5222,-1.5218,-1.5214,-1.5228,-1.5249,-1.53,-1.5189,-1.5197,-1.5178,-1.5173,-1.5216,-1.522,-1.5234,-1.5332,-1.5333,-1.5228,-1.5232,-1.5234,-1.5235,0,0,0,0,0,0,0,-1.517,-1.5179,-1.527,-1.5222,-1.5218,-1.5194,-1.5195,-1.5258,-1.5231,-1.5196,-1.5189,-1.5193,-1.5213,-1.5229,-1.5234,-1.5334,-1.5228,-1.5233,-1.5236,-1.5238,-1.5529,-1.5534,0,0,0,0,0,0,-1.5173,-1.5177,-1.5269,-1.5271,-1.5182,-1.52,-1.5201,-1.5228,-1.523,-1.5226,-1.5196,-1.5188,-1.5223,-1.5228,-1.5234,-1.5373,-1.5234,-1.5239,-1.5241,-1.5525,-1.553,-1.5535,0,0,0,0,0,0,-1.517,-1.5182,-1.5268,-1.5222,-1.5231,-1.5207,-1.5237,-1.5231,-1.5246,-1.523,-1.5225,-1.5218,-1.5219,-1.5227,-1.5307,-1.5373,-1.5241,-1.5245,-1.5519,-1.5526,-1.5533,-1.5652,0,0,0,0,0,0,-1.5167,-1.5182,-1.5227,-1.5223,-1.5234,-1.5341,-1.5241,-1.5234,-1.5255,-1.5245,-1.5249,-1.5245,-1.5217,-1.53,-1.5312,-1.5378,-1.5249,-1.5513,-1.5522,-1.5531,-1.5643,-1.5663,-1.568,0,0,0,0,0,-1.5163,-1.526,-1.5229,-1.5241,-1.5289,-1.5345,-1.5351,-1.5315,-1.5261,-1.5306,-1.5295,-1.5245,-1.5363,-1.5309,-1.5322,-1.539,-1.5509,-1.552,-1.553,-1.5634,-1.5659,-1.5679,0,0,0,0,0,0,-1.5273,-1.5259,-1.5225,-1.5324,-1.5336,-1.5328,-1.5384,-1.5342,-1.5371,-1.536,-1.5315,-1.5317,-1.5405,-1.5405,-1.5345,-1.5504,-1.5427,-1.544,-1.5502,-1.5525,-1.5543,-1.5542,-1.5254,0,0,0,0,0,-1.5308,-1.5354,-1.534,-1.5428,-1.5436,-1.5409,-1.5432,-1.5403,-1.5415,-1.542,-1.5415,-1.5429,-1.5468,-1.5496,-1.5532,-1.5641,-1.5641,-1.5694,-1.5712,-1.5728,-1.5741,-1.5798,-1.5822,-1.557,-1.557,-1.5569,0,0,-1.5383,-1.5381,-1.5413,-1.545,-1.5457,-1.5506,-1.5414,-1.547,-1.5507,-1.5429,-1.5504,-1.5501,-1.5513,-1.5608,-1.5649,-1.561,-1.581,-1.5741,-1.5753,-1.5758,-1.5812,-1.5835,-1.5857,-1.5577,-1.5576,-1.5574,0,0,-1.5544,-1.5547,-1.5621,-1.5628,-1.5638,-1.5619,-1.5637,-1.5635,-1.563,-1.5704,-1.5646,-1.5688,-1.5758,-1.5769,-1.5784,-1.5947,-1.5902,-1.5959,-1.6058,-1.6115,-1.6134,-1.6152,-1.6211,-1.6232,-1.5972,-1.5972,-1.5972,0,-1.5636,-1.5707,-1.5664,-1.5724,-1.5742,-1.5672,-1.5747,-1.5756,-1.5778,-1.5793,-1.5748,-1.5833,-1.5836,-1.5933,-1.5973,-1.5986,-1.6006,-1.596,-1.6135,-1.6152,-1.6167,-1.6223,-1.6246,-1.5979,-1.5978,-1.5978,-1.5977,0,-1.582,-1.587,-1.5929,-1.595,-1.5974,-1.6042,-1.6009,-1.6039,-1.6007,-1.5993,-1.6069,-1.607,-1.6105,-1.6125,-1.6095,-1.6217,-1.6193,-1.6142,-1.6064,-1.6199,-1.6251,-1.6272,-1.5989,-1.5987,-1.5985,-1.5983,0,0,-1.6055,-1.6049,-1.6072,-1.608,-1.6085,-1.6123,-1.6186,-1.6219,-1.6246,-1.6262,-1.6315,-1.6374,-1.6327,-1.6344,-1.6314,-1.6363,-1.6493,-1.6306,-1.6306,-1.6342,-1.6628,-1.6668,-1.6694,-1.6462,-1.6466,-1.6469,-1.6628,0,-1.6214,-1.6321,-1.6284,-1.6394,-1.644,-1.6372,-1.6427,-1.6436,-1.6424,-1.6461,-1.6447,-1.6491,-1.6424,-1.6434,-1.6479,-1.6468,-1.655,-1.6455,-1.6512,-1.6515,-1.6513,-1.672,-1.6763,-1.6913,-1.6648,-1.6651,-1.6653,0,-1.6415,-1.6438,-1.6553,-1.6548,-1.6566,-1.6616,-1.6643,-1.6678,-1.6687,-1.6674,-1.6692,-1.6651,-1.6713,-1.6632,-1.6717,-1.6654,-1.6674,-1.6672,-1.6676,-1.6682,-1.6594,-1.6734,-1.696,-1.6983,-1.6685,-1.6682,-1.668,0,-1.6576,-1.6636,-1.6712,-1.6721,-1.6717,-1.6754,-1.6755,-1.6758,-1.678,-1.6803,-1.6816,-1.6847,-1.6864,-1.6888,-1.6856,-1.68,-1.6946,-1.6863,-1.6938,-1.694,-1.6975,-1.6973,-1.7209,-1.6985,-1.6984,-1.6984,-1.6983,0,-1.6759,-1.6832,-1.6784,-1.6832,-1.6911,-1.6866,-1.6947,-1.6939,-1.6943,-1.6988,-1.693,-1.6974,-1.6928,-1.6967,-1.6942,-1.7017,-1.7024,-1.7017,-1.701,-1.7023,-1.7025,-1.7038,-1.7027,-1.699,-1.6988,-1.6987,-1.6986,0,-1.6954,-1.6925,-1.7004,-1.6993,-1.6991,-1.7051,-1.7042,-1.7085,-1.7067,-1.7125,-1.7135,-1.7108,-1.7151,-1.7121,-1.7164,-1.7147,-1.7245,-1.7223,-1.7243,-1.7237,-1.7315,-1.7309,-1.7569,-1.7602,-1.7355,-1.7357,-1.7359,0,-1.7074,-1.7129,-1.7123,-1.7148,-1.7152,-1.7194,-1.7215,-1.7172,-1.7196,-1.7209,-1.7251,-1.7288,-1.7316,-1.7388,-1.7372,-1.7405,-1.7383,-1.7472,-1.7388,-1.74,-1.7387,-1.7385,-1.739,-1.7491,-1.7493,-1.7496,-1.7498,0,-1.7291,-1.7273,-1.7305,-1.7333,-1.7359,-1.7379,-1.7394,-1.7418,-1.7374,-1.7405,-1.7447,-1.7469,-1.7511,-1.755,-1.7575,-1.7576,-1.7531,-1.7524,-1.7543,-1.7559,-1.7569,-1.7566,-1.7291,-1.7519,-1.7517,-1.7515,-1.7514,-1.7513,-1.7453,-1.7499,-1.7501,-1.7539,-1.7545,-1.756,-1.76,-1.7586,-1.762,-1.7651,-1.7623,-1.7675,-1.768,-1.771,-1.7716,-1.7755,-1.7719,-1.7747,-1.7754,-1.7762,-1.7774,-1.756,-1.7759,-1.7759,-1.7758,-1.7758,-1.7757,0,-1.7668,-1.7666,-1.7701,-1.7723,-1.7753,-1.7704,-1.7718,-1.7746,-1.7792,-1.78,-1.7828,-1.7876,-1.7912,-1.7898,-1.793,-1.7964,-1.7944,-1.7975,-1.7973,-1.7974,-1.7804,-1.7785,-1.799,-1.799,-1.799,-1.799,-1.799,-1.799,-1.7784,-1.7858,-1.784,-1.7916,-1.7913,-1.7962,-1.7974,-1.7987,-1.7993,-1.805,-1.8079,-1.8069,-1.8068,-1.8099,-1.813,-1.8125,-1.814,-1.8178,-1.8166,-1.8009,-1.7986,-1.7964,-1.7946,-1.8182,-1.8182,-1.8333,-1.8334,-1.8335]},{"header":{"parameterUnit":"m.s-1","parameterCategory":1,"la1":30.2991,"la2":30.254,"lo1":-89.0895,"lo2":-89.0444,"dy":0.0017,"dx":0.0017,"nx":28,"ny":28,"refTime":"2023-09-08T21:00:00:Z","depth":0,"parameterNumber":3,"parameterNumberName":"V-component_of_WINDS"},"data":[0,0,0,0,0,0,0,0,0,0,0,0,0,0,0,0,0,0,0,0,0,0,0,0,0,0,0,0,0,0,0,0,0,0,0,0,0,0,0,0,0,0,0,0,0,0,0,0,0,0,0,0,0,0,0,0,0,0,-3.7313,-3.7314,0,-3.7376,-3.7377,-3.7378,-3.7321,-3.7319,-3.7316,-3.7314,-3.7375,-3.7379,-3.7382,0,0,0,0,0,0,0,0,0,0,0,0,0,-3.714,-3.7143,-3.7313,-3.7314,-3.7315,-3.7376,-3.7377,-3.7378,-3.7321,-3.7319,-3.7316,-3.7313,-3.7374,-3.7378,-3.7383,0,0,0,0,0,0,0,0,0,0,0,0,0,-3.721,-3.7144,-3.7313,-3.7294,-3.7293,-3.7376,-3.7377,-3.7378,-3.7322,-3.7319,-3.7315,-3.7312,-3.7372,-3.7378,-3.7383,-3.7487,0,0,-3.74,-3.7403,0,0,0,0,0,0,0,0,-3.7206,-3.7216,-3.7296,-3.7296,-3.7295,-3.7337,-3.7338,-3.7414,-3.7323,-3.7311,-3.7314,-3.731,-3.7365,-3.7371,-3.739,-3.749,-3.7492,-3.7401,-3.7404,-3.7407,-3.7408,0,0,0,0,0,0,0,-3.7201,-3.7213,-3.7338,-3.7297,-3.7296,-3.7281,-3.7287,-3.7352,-3.7356,-3.7312,-3.7308,-3.7316,-3.7364,-3.7385,-3.7391,-3.7493,-3.7401,-3.7406,-3.7409,-3.7411,-3.7678,-3.7682,0,0,0,0,0,0,-3.7199,-3.721,-3.7336,-3.734,-3.7241,-3.7287,-3.7294,-3.7327,-3.7355,-3.7357,-3.7319,-3.7313,-3.7377,-3.7385,-3.7393,-3.7515,-3.7407,-3.7412,-3.7415,-3.7675,-3.7679,-3.7683,0,0,0,0,0,0,-3.7195,-3.7211,-3.7333,-3.7274,-3.7288,-3.7294,-3.7331,-3.733,-3.7351,-3.7361,-3.7361,-3.734,-3.7375,-3.7385,-3.7464,-3.7516,-3.7415,-3.742,-3.767,-3.7676,-3.7681,-3.776,0,0,0,0,0,0,-3.7191,-3.721,-3.725,-3.7275,-3.7292,-3.7405,-3.7335,-3.7334,-3.7361,-3.7354,-3.7381,-3.7382,-3.7373,-3.7456,-3.7469,-3.7522,-3.7424,-3.7666,-3.7673,-3.768,-3.7753,-3.7768,-3.7781,0,0,0,0,0,-3.7185,-3.727,-3.7253,-3.7268,-3.7343,-3.7408,-3.7417,-3.7406,-3.7366,-3.7406,-3.7412,-3.7381,-3.7509,-3.7464,-3.7479,-3.7534,-3.7662,-3.7671,-3.7679,-3.7747,-3.7765,-3.778,0,0,0,0,0,0,-3.725,-3.7273,-3.7254,-3.735,-3.7378,-3.7398,-3.7448,-3.7426,-3.7464,-3.7456,-3.7439,-3.7446,-3.7528,-3.7539,-3.7489,-3.7635,-3.7579,-3.759,-3.7625,-3.7642,-3.7656,-3.7651,-3.7429,0,0,0,0,0,-3.7276,-3.7328,-3.7345,-3.7427,-3.7442,-3.7443,-3.7471,-3.746,-3.7487,-3.7498,-3.751,-3.7537,-3.7583,-3.7613,-3.7656,-3.7754,-3.7758,-3.78,-3.7813,-3.7825,-3.7835,-3.7886,-3.7904,-3.7711,-3.7711,-3.7711,0,0,-3.7329,-3.7348,-3.7382,-3.7441,-3.7461,-3.7514,-3.7453,-3.7512,-3.7551,-3.7507,-3.7582,-3.7592,-3.762,-3.7709,-3.7748,-3.772,-3.7889,-3.7835,-3.7844,-3.7848,-3.7896,-3.7914,-3.7931,-3.7716,-3.7715,-3.7715,0,0,-3.7453,-3.7474,-3.7544,-3.7566,-3.7597,-3.7597,-3.7614,-3.7638,-3.7643,-3.7718,-3.7686,-3.7731,-3.7811,-3.7832,-3.7853,-3.7984,-3.7956,-3.7998,-3.807,-3.812,-3.8135,-3.8149,-3.8194,-3.8211,-3.8008,-3.8009,-3.8009,0,-3.7515,-3.7596,-3.7583,-3.7645,-3.7671,-3.7634,-3.7704,-3.7725,-3.7769,-3.7787,-3.7755,-3.7854,-3.787,-3.7962,-3.7994,-3.8013,-3.8031,-3.7995,-3.8134,-3.8148,-3.816,-3.8203,-3.822,-3.8014,-3.8013,-3.8012,-3.8012,0,-3.7669,-3.7725,-3.7778,-3.7822,-3.7854,-3.792,-3.7916,-3.7949,-3.7935,-3.7938,-3.8014,-3.8032,-3.8078,-3.8099,-3.8086,-3.8189,-3.817,-3.8137,-3.808,-3.8183,-3.8223,-3.824,-3.802,-3.8019,-3.8017,-3.8016,0,0,-3.7836,-3.7872,-3.7892,-3.7911,-3.7942,-3.7984,-3.8047,-3.8093,-3.8121,-3.8152,-3.8203,-3.8271,-3.824,-3.8264,-3.8253,-3.8297,-3.8398,-3.8258,-3.8258,-3.8282,-3.8511,-3.8535,-3.8555,-3.838,-3.8383,-3.8385,-3.8508,0,-3.7961,-3.8072,-3.8062,-3.8167,-3.8217,-3.8183,-3.8237,-3.8262,-3.8266,-3.8307,-3.8311,-3.8359,-3.8315,-3.8329,-3.8372,-3.8377,-3.8443,-3.8368,-3.8426,-3.8428,-3.8419,-3.8576,-3.8602,-3.8717,-3.8524,-3.8526,-3.8528,0,-3.8121,-3.8158,-3.8268,-3.8291,-3.8312,-3.8361,-3.8401,-3.8442,-3.8469,-3.8468,-3.8495,-3.8475,-3.8537,-3.8479,-3.8562,-3.8511,-3.8534,-3.854,-3.8544,-3.8548,-3.8484,-3.8583,-3.8753,-3.877,-3.8553,-3.8551,-3.8549,0,-3.823,-3.8308,-3.8383,-3.8401,-3.8429,-3.8465,-3.8478,-3.8501,-3.8528,-3.8563,-3.858,-3.8621,-3.8643,-3.8674,-3.8666,-3.8625,-3.8751,-3.8692,-3.875,-3.8751,-3.8778,-3.8776,-3.8953,-3.8795,-3.8795,-3.8794,-3.8794,0,-3.837,-3.8438,-3.8433,-3.8479,-3.8554,-3.8541,-3.8615,-3.8623,-3.8644,-3.869,-3.8662,-3.8706,-3.8693,-3.8735,-3.8728,-3.8797,-3.8808,-3.8808,-3.8805,-3.881,-3.881,-3.8824,-3.8815,-3.8799,-3.8798,-3.8797,-3.8796,0,-3.8504,-3.8504,-3.8583,-3.8604,-3.8611,-3.8665,-3.8682,-3.8724,-3.8726,-3.8785,-3.8797,-3.8799,-3.8848,-3.8843,-3.8896,-3.8892,-3.8977,-3.8966,-3.8969,-3.8966,-3.9024,-3.9018,-3.9215,-3.924,-3.9067,-3.9068,-3.907,0,-3.8593,-3.8644,-3.8671,-3.87,-3.8716,-3.8764,-3.8792,-3.8781,-3.8811,-3.8844,-3.8882,-3.8928,-3.8964,-3.9043,-3.9048,-3.9089,-3.9077,-3.9143,-3.9083,-3.9085,-3.9076,-3.9073,-3.9077,-3.9155,-3.9157,-3.9158,-3.916,0,-3.8749,-3.8746,-3.8789,-3.8831,-3.8865,-3.8897,-3.8926,-3.8951,-3.8943,-3.8978,-3.9027,-3.9055,-3.911,-3.9156,-3.9194,-3.9205,-3.9181,-3.9179,-3.9194,-3.9199,-3.9198,-3.9198,-3.9,-3.9174,-3.9173,-3.9172,-3.9171,-3.917,-3.8863,-3.8907,-3.8932,-3.8979,-3.9,-3.9028,-3.9069,-3.9075,-3.9117,-3.9162,-3.9152,-3.9208,-3.9231,-3.928,-3.9295,-3.9337,-3.9313,-3.9335,-3.9341,-3.9346,-3.9353,-3.9193,-3.9344,-3.9344,-3.9343,-3.9343,-3.9343,0,-3.9017,-3.9031,-3.9075,-3.9117,-3.9154,-3.9129,-3.9159,-3.9191,-3.9241,-3.9265,-3.9301,-3.9357,-3.9401,-3.941,-3.9451,-3.9483,-3.9472,-3.9494,-3.949,-3.9493,-3.9373,-3.9355,-3.9501,-3.9501,-3.9501,-3.9501,-3.9501,-3.9501,-3.9101,-3.9174,-3.9174,-3.9255,-3.9269,-3.9324,-3.9343,-3.9368,-3.9387,-3.9451,-3.9488,-3.9494,-3.9511,-3.9553,-3.9591,-3.9593,-3.9608,-3.9634,-3.9631,-3.9518,-3.9502,-3.9487,-3.947,-3.9638,-3.9638,-3.9748,-3.9749,-3.9749]}]]